Terminal Aerodrome Forecast
Issued by NWS Atlanta, GA

Home | Current Version | Previous Version | Text Only | Print | Product List | Glossary On
Versions: 1 2 3 4 5 6 7 8 9 10 11 12 13 14 15 16 17 18 19 20 21 22 23 24 25 26 27 28 29 30 31 32 33 34
000
FTUS42 KFFC 291413 AAA
TAFAHN
TAF AMD
KAHN 291413Z 2914/3012 12005KT P6SM FEW015 SCT040
     FM291600 14006KT P6SM SCT025
     FM291800 13008KT P6SM BKN040
     FM300200 13005KT P6SM FEW040 SCT120=

USA.gov is the U.S. government's official web portal to all federal, state and local government web resources and services.